COSMOS 2251 DEB, 38479

Orbit data source: Space-Track

COSMOS 2251 DEB, 38479 is space debris in LEO originally from a launch on Wed, 16 Jun 1993 UTC launched from the Plesetsk Missile And Space Complex (PKMTR). The debris from Iridium 33, an American commercial communications satellite, has been tracked extensively since its accidental collision with the defunct Russian satellite Cosmos 2251 in 2009. This event, occurring at high speed in low Earth orbit (LEO), generated thousands of pieces of space debris, significantly increasing the risk of further collisions. The Iridium 33 debris cloud has impacted space traffic management and orbital debris mitigation strategies, making it a subject of ongoing study in space situational awareness.

Loading next visibility...
Identifier
38479, 1993-036BTP
Orbit
LEO
Country
Flag of CISCIS
Related business
Manufacturer
Unknown
Mission
Spacecraft
Bus & Motor
Unknown
Mass
Unknown
Launch date (UTC)
1993-06-16 (32 years ago)
Launch vehicle
Unknown
Launch site
Plesetsk Missile And Space Complex (PKMTR)
Object type
Payload
Rocket body
Debris
Shape & HBR
Unknown shape, 0.1 m
Radar Cross Section
Small (<0.1 m²)

Expand to show TLE details & history
Last TLE update: 17 hours ago

TLE from 17 hours ago
0 COSMOS 2251 DEB
1 38479U 93036BTP 25301.19883400  .00008152  00000-0  26202-2 0  9996
2 38479  74.0078 268.3018 0084175  25.6555 351.7731 14.37477879640330
Epoch: 2025-10-28T04:46Z
TLE epoch observation values (Epoch: 2025-10-28T04:46:19.257Z)
Latitude
16.59107°
Longitude
164.80383°
Altitude
709.291 km
Speed
7.534 km/s
True Right ascension
18h 12m 41s
True Declination
16° 29' 48"
Sunlit
Object was in daylight at epoch
Visualization orbit readout
Latitude
Unknown
Longitude
Unknown
Altitude
Unknown
Speed
Unknown
Apparent Right ascension
Unknown
Apparent Declination
Unknown
Sunlit
N/A
Visualization observer readout
Local Sidereal Time
17:31:29
Azimuth
Unknown
Elevation
Unknown
Doppler factor
Unknown
Orbital elements
Apogee altitude
824.591 km
Perigee altitude
704.345 km
Semi-major axis
7,142.605 km
Eccentricity
0.00842
Inclination
74.0078°
RAAN
268.3018°
Arg. of periapsis
25.6555°
True anomaly
351.63362°
Mean anomaly
351.7731°
Eccentric anomaly
351.70351°
Mean motion
3.59549 °/min
Orbital period
100.13 mins
BSTAR
0.0026202

Documentation

Showing up to 5 results
|